[[{"header":{"parameterUnit":"m.s-1","parameterCategory":1,"la1":30.2991,"la2":30.254,"lo1":-89.0895,"lo2":-89.0444,"dy":0.0017,"dx":0.0017,"nx":28,"ny":28,"refTime":"2025-12-21T03:00:00:Z","depth":0,"parameterNumber":2,"parameterNumberName":"U-component_of_WINDS"},"data":[0,0,0,0,0,0,0,0,0,0,0,0,0,0,0,0,0,0,0,0,0,0,0,0,0,0,0,0,0,0,0,0,0,0,0,0,0,0,0,0,0,0,0,0,0,0,0,0,0,0,0,0,0,0,0,0,0,0,-4.5575,-4.5575,0,-4.5552,-4.5552,-4.5552,-4.5446,-4.5444,-4.5441,-4.5439,-4.5414,-4.5416,-4.5418,0,0,0,0,0,0,0,0,0,0,0,0,0,-4.5531,-4.5533,-4.5575,-4.5575,-4.5575,-4.5552,-4.5552,-4.5552,-4.5446,-4.5443,-4.544,-4.5438,-4.5414,-4.5416,-4.5418,0,0,0,0,0,0,0,0,0,0,0,0,0,-4.5534,-4.5533,-4.5575,-4.552,-4.5514,-4.5552,-4.5552,-4.5551,-4.5447,-4.5443,-4.544,-4.5436,-4.5413,-4.5416,-4.5418,-4.5508,0,0,-4.5426,-4.5427,0,0,0,0,0,0,0,0,-4.5534,-4.5535,-4.5528,-4.5524,-4.5518,-4.5498,-4.5527,-4.5537,-4.5448,-4.5473,-4.5439,-4.5434,-4.5445,-4.5445,-4.5449,-4.5507,-4.5505,-4.5426,-4.5427,-4.5429,-4.5429,0,0,0,0,0,0,0,-4.5534,-4.5536,-4.5566,-4.5528,-4.5522,-4.5497,-4.5493,-4.5529,-4.548,-4.547,-4.5462,-4.5461,-4.5442,-4.5447,-4.5447,-4.5505,-4.5426,-4.5428,-4.543,-4.5431,-4.5639,-4.5643,0,0,0,0,0,0,-4.5541,-4.5536,-4.5567,-4.5565,-4.5517,-4.5501,-4.5496,-4.5508,-4.5479,-4.5471,-4.5464,-4.5456,-4.5444,-4.5445,-4.5446,-4.555,-4.5428,-4.5431,-4.5432,-4.5635,-4.564,-4.5644,0,0,0,0,0,0,-4.5541,-4.5545,-4.5568,-4.5549,-4.555,-4.5505,-4.552,-4.551,-4.5514,-4.5475,-4.5466,-4.5478,-4.5441,-4.5443,-4.5494,-4.5548,-4.5432,-4.5434,-4.563,-4.5637,-4.5642,-4.5759,0,0,0,0,0,0,-4.554,-4.5545,-4.5578,-4.555,-4.5551,-4.5616,-4.5523,-4.5512,-4.5519,-4.5508,-4.5485,-4.5478,-4.5438,-4.5491,-4.5496,-4.5549,-4.5436,-4.5625,-4.5633,-4.564,-4.575,-4.5769,-4.5784,0,0,0,0,0,-4.5539,-4.5611,-4.558,-4.5584,-4.5591,-4.5619,-4.5619,-4.5572,-4.5524,-4.5557,-4.5532,-4.5479,-4.5542,-4.5497,-4.5502,-4.5557,-4.5621,-4.5631,-4.564,-4.5743,-4.5765,-4.5784,0,0,0,0,0,0,-4.5644,-4.5606,-4.5571,-4.5637,-4.5632,-4.5601,-4.564,-4.5597,-4.5605,-4.5595,-4.5537,-4.5533,-4.5593,-4.558,-4.5531,-4.5644,-4.5573,-4.5584,-4.5649,-4.567,-4.5687,-4.5688,-4.5438,0,0,0,0,0,-4.5675,-4.5701,-4.5666,-4.5727,-4.5727,-4.5685,-4.5695,-4.566,-4.5653,-4.565,-4.5629,-4.5624,-4.5643,-4.5656,-4.5671,-4.5749,-4.5743,-4.579,-4.5807,-4.5821,-4.583,-4.5873,-4.5894,-4.5674,-4.5674,-4.5674,0,0,-4.5739,-4.5722,-4.5741,-4.5748,-4.574,-4.5769,-4.5684,-4.5716,-4.5738,-4.5654,-4.5702,-4.5687,-4.5678,-4.5744,-4.5772,-4.5735,-4.589,-4.5833,-4.5844,-4.5845,-4.5885,-4.5905,-4.5924,-4.568,-4.5679,-4.5678,0,0,-4.587,-4.5859,-4.591,-4.5905,-4.5895,-4.5867,-4.588,-4.5857,-4.5844,-4.5892,-4.5831,-4.5856,-4.5889,-4.5886,-4.5889,-4.6025,-4.5977,-4.6032,-4.6119,-4.6162,-4.6179,-4.6194,-4.6244,-4.6262,-4.6042,-4.6042,-4.6042,0,-4.595,-4.599,-4.5941,-4.598,-4.5986,-4.5915,-4.5967,-4.5964,-4.596,-4.5966,-4.5926,-4.5969,-4.5957,-4.6022,-4.6056,-4.6061,-4.6074,-4.6032,-4.6181,-4.6195,-4.6209,-4.6255,-4.6274,-4.6049,-4.6048,-4.6047,-4.6047,0,-4.609,-4.612,-4.6162,-4.6162,-4.6173,-4.6218,-4.6177,-4.6195,-4.6161,-4.6138,-4.6189,-4.6174,-4.6186,-4.6199,-4.6165,-4.6261,-4.6239,-4.6191,-4.6118,-4.6237,-4.628,-4.6297,-4.6058,-4.6056,-4.6054,-4.6052,0,0,-4.6282,-4.6258,-4.6274,-4.6274,-4.6261,-4.6283,-4.6327,-4.634,-4.6357,-4.6358,-4.6393,-4.6426,-4.6383,-4.6386,-4.6352,-4.6389,-4.65,-4.6336,-4.6335,-4.6367,-4.6607,-4.6642,-4.6664,-4.6469,-4.6473,-4.6475,-4.6608,0,-4.6407,-4.6479,-4.6439,-4.6517,-4.6545,-4.6481,-4.6519,-4.6516,-4.6498,-4.6519,-4.6499,-4.6523,-4.6464,-4.6466,-4.65,-4.6479,-4.6547,-4.6469,-4.6502,-4.6504,-4.6505,-4.6686,-4.6722,-4.6847,-4.6624,-4.6627,-4.6629,0,-4.656,-4.6571,-4.6652,-4.6637,-4.6647,-4.6682,-4.6693,-4.6715,-4.6711,-4.6695,-4.6703,-4.6661,-4.6704,-4.6634,-4.6694,-4.6642,-4.6654,-4.6647,-4.665,-4.665,-4.6572,-4.669,-4.6886,-4.6905,-4.6654,-4.6652,-4.6651,0,-4.6693,-4.6727,-4.678,-4.6783,-4.6766,-4.6793,-4.6788,-4.6781,-4.6793,-4.6803,-4.681,-4.6825,-4.6833,-4.6847,-4.6811,-4.6763,-4.6876,-4.6803,-4.6864,-4.6866,-4.6889,-4.6887,-4.7089,-4.6899,-4.6899,-4.6898,-4.6898,0,-4.6835,-4.6887,-4.684,-4.6873,-4.6931,-4.6886,-4.6945,-4.6933,-4.6928,-4.6959,-4.6905,-4.6935,-4.6886,-4.6912,-4.6885,-4.6939,-4.6943,-4.6932,-4.6924,-4.6936,-4.6938,-4.6941,-4.6931,-4.6903,-4.6902,-4.6901,-4.69,0,-4.699,-4.696,-4.7015,-4.6997,-4.6994,-4.7038,-4.7023,-4.7053,-4.7034,-4.7073,-4.708,-4.7049,-4.7076,-4.7043,-4.7067,-4.7049,-4.7124,-4.7103,-4.7125,-4.7118,-4.7182,-4.7176,-4.7392,-4.7418,-4.7213,-4.7215,-4.7216,0,-4.7082,-4.7121,-4.7109,-4.7126,-4.7125,-4.7153,-4.7166,-4.7125,-4.7141,-4.7143,-4.7174,-4.7198,-4.7214,-4.7263,-4.7242,-4.7262,-4.724,-4.7315,-4.7243,-4.7255,-4.7241,-4.7239,-4.7243,-4.7329,-4.7331,-4.7333,-4.7335,0,-4.7249,-4.7233,-4.7254,-4.7271,-4.7289,-4.73,-4.7307,-4.7324,-4.7283,-4.7304,-4.7332,-4.7346,-4.7373,-4.7398,-4.7413,-4.7407,-4.7365,-4.7359,-4.7374,-4.7386,-4.7397,-4.7392,-4.7164,-4.7353,-4.7351,-4.735,-4.7349,-4.7348,-4.7374,-4.7407,-4.7405,-4.7431,-4.7433,-4.7443,-4.7471,-4.7457,-4.748,-4.75,-4.7475,-4.7512,-4.7511,-4.7527,-4.7528,-4.7556,-4.7524,-4.7546,-4.7552,-4.7557,-4.7567,-4.7395,-4.7559,-4.7558,-4.7558,-4.7557,-4.7557,0,-4.7538,-4.7534,-4.7559,-4.7573,-4.7594,-4.7555,-4.7562,-4.7583,-4.7616,-4.7619,-4.7638,-4.7673,-4.7699,-4.7683,-4.7704,-4.7731,-4.7712,-4.7738,-4.7734,-4.7734,-4.7594,-4.7579,-4.7753,-4.7753,-4.7753,-4.7753,-4.7753,-4.7752,-4.7625,-4.7679,-4.7665,-4.7722,-4.7718,-4.7754,-4.7762,-4.7771,-4.7774,-4.7816,-4.7837,-4.7828,-4.7824,-4.7846,-4.7869,-4.7863,-4.7874,-4.7906,-4.7894,-4.7763,-4.7744,-4.7725,-4.771,-4.7909,-4.791,-4.8032,-4.8033,-4.8034]},{"header":{"parameterUnit":"m.s-1","parameterCategory":1,"la1":30.2991,"la2":30.254,"lo1":-89.0895,"lo2":-89.0444,"dy":0.0017,"dx":0.0017,"nx":28,"ny":28,"refTime":"2025-12-21T03:00:00:Z","depth":0,"parameterNumber":3,"parameterNumberName":"V-component_of_WINDS"},"data":[0,0,0,0,0,0,0,0,0,0,0,0,0,0,0,0,0,0,0,0,0,0,0,0,0,0,0,0,0,0,0,0,0,0,0,0,0,0,0,0,0,0,0,0,0,0,0,0,0,0,0,0,0,0,0,0,0,0,0.4078,0.4078,0,0.4088,0.4088,0.4088,0.4119,0.412,0.412,0.4121,0.4128,0.4127,0.4127,0,0,0,0,0,0,0,0,0,0,0,0,0,0.4087,0.4087,0.4078,0.4078,0.4078,0.4088,0.4088,0.4088,0.4119,0.412,0.412,0.4121,0.4128,0.4128,0.4127,0,0,0,0,0,0,0,0,0,0,0,0,0,0.4089,0.4087,0.4078,0.4095,0.4097,0.4088,0.4088,0.4088,0.4119,0.412,0.4121,0.4122,0.4128,0.4128,0.4127,0.4102,0,0,0.4125,0.4124,0,0,0,0,0,0,0,0,0.4089,0.4088,0.4092,0.4094,0.4096,0.4103,0.4094,0.4092,0.4118,0.411,0.4121,0.4122,0.4119,0.4119,0.4118,0.4102,0.4102,0.4125,0.4124,0.4124,0.4124,0,0,0,0,0,0,0,0.4088,0.4088,0.4082,0.4092,0.4094,0.4102,0.4104,0.4094,0.4108,0.4111,0.4113,0.4114,0.412,0.4119,0.4119,0.4102,0.4125,0.4124,0.4124,0.4123,0.407,0.4069,0,0,0,0,0,0,0.4086,0.4088,0.4082,0.4082,0.4095,0.4101,0.4103,0.41,0.4109,0.4111,0.4113,0.4115,0.4119,0.4119,0.4119,0.4092,0.4124,0.4123,0.4123,0.4071,0.407,0.4069,0,0,0,0,0,0,0.4086,0.4085,0.4081,0.4086,0.4086,0.41,0.4096,0.4099,0.4098,0.411,0.4113,0.4109,0.412,0.412,0.4107,0.4093,0.4123,0.4122,0.4072,0.4071,0.4069,0.4038,0,0,0,0,0,0,0.4086,0.4085,0.4075,0.4085,0.4085,0.4068,0.4095,0.4099,0.4097,0.4101,0.4107,0.411,0.4121,0.4108,0.4106,0.4093,0.4122,0.4073,0.4071,0.407,0.404,0.4035,0.4031,0,0,0,0,0,0.4087,0.4064,0.4074,0.4074,0.4073,0.4068,0.4068,0.4082,0.4096,0.4087,0.4095,0.4109,0.4095,0.4106,0.4104,0.4091,0.4074,0.4072,0.407,0.4042,0.4036,0.4031,0,0,0,0,0,0,0.405,0.4066,0.4077,0.4058,0.4061,0.4073,0.4061,0.4075,0.4074,0.4077,0.4094,0.4095,0.408,0.4084,0.4096,0.4069,0.4087,0.4085,0.4067,0.4061,0.4057,0.4056,0.4121,0,0,0,0,0,0.404,0.4035,0.4048,0.403,0.4032,0.4046,0.4044,0.4055,0.4059,0.4061,0.4068,0.4071,0.4068,0.4064,0.4062,0.4041,0.4044,0.4031,0.4027,0.4023,0.402,0.4013,0.4008,0.4061,0.4061,0.4061,0,0,0.4019,0.4027,0.4022,0.4023,0.4027,0.4022,0.4047,0.4039,0.4035,0.4059,0.4048,0.4054,0.4058,0.4042,0.4035,0.4045,0.4007,0.402,0.4017,0.4017,0.401,0.4005,0.4001,0.406,0.406,0.406,0,0,0.3978,0.3982,0.3969,0.3974,0.3981,0.3991,0.3988,0.3999,0.4004,0.3994,0.4013,0.4008,0.4001,0.4005,0.4006,0.3971,0.3985,0.3969,0.3946,0.3939,0.3935,0.3931,0.392,0.3916,0.3967,0.3967,0.3967,0,0.395,0.3942,0.396,0.3952,0.3953,0.3977,0.3965,0.3968,0.3973,0.3974,0.3985,0.3979,0.3984,0.397,0.3962,0.3961,0.396,0.3968,0.3934,0.393,0.3927,0.3917,0.3913,0.3965,0.3965,0.3965,0.3965,0,0.3909,0.3904,0.3893,0.39,0.3899,0.3889,0.3906,0.3904,0.3916,0.3926,0.3917,0.3924,0.3924,0.3922,0.3932,0.3911,0.3917,0.3931,0.395,0.392,0.3911,0.3907,0.3962,0.3963,0.3963,0.3964,0,0,0.3842,0.3863,0.3858,0.3863,0.3875,0.3871,0.3863,0.3865,0.3864,0.3868,0.3862,0.3858,0.3872,0.3873,0.3885,0.3878,0.3853,0.3893,0.3894,0.3887,0.3833,0.3823,0.3818,0.3863,0.3862,0.3862,0.3833,0,0.3805,0.3793,0.381,0.3794,0.3791,0.3816,0.381,0.3816,0.3826,0.3825,0.3836,0.3833,0.3851,0.3852,0.3847,0.3857,0.3843,0.386,0.3859,0.3859,0.3857,0.3813,0.3802,0.3774,0.3829,0.3829,0.3828,0,0.3758,0.3763,0.3747,0.3763,0.3762,0.3756,0.3762,0.376,0.3769,0.3777,0.3781,0.3796,0.3791,0.381,0.3803,0.3814,0.3816,0.3821,0.382,0.3821,0.3842,0.3814,0.3766,0.3762,0.3823,0.3823,0.3823,0,0.3714,0.3715,0.3707,0.371,0.3728,0.3724,0.3731,0.3741,0.3743,0.3748,0.375,0.3753,0.3755,0.3758,0.3775,0.3786,0.3767,0.3787,0.3774,0.3774,0.3768,0.3768,0.3721,0.3768,0.3768,0.3768,0.3768,0,0.367,0.3659,0.3688,0.3683,0.3673,0.3695,0.3684,0.3694,0.3704,0.3702,0.3723,0.3721,0.3742,0.3743,0.3756,0.375,0.375,0.3757,0.3761,0.3755,0.3755,0.3756,0.3759,0.3767,0.3767,0.3767,0.3767,0,0.3617,0.3636,0.3629,0.3648,0.3653,0.3645,0.3662,0.3658,0.3671,0.3668,0.3669,0.3689,0.3691,0.3708,0.3713,0.3722,0.3711,0.3718,0.3709,0.3711,0.3698,0.37,0.365,0.3646,0.3695,0.3694,0.3694,0,0.3588,0.3582,0.3601,0.3603,0.3609,0.361,0.3613,0.3635,0.3637,0.3649,0.3645,0.3649,0.3653,0.3656,0.367,0.3675,0.3683,0.3666,0.3684,0.368,0.3685,0.3685,0.3686,0.3661,0.3661,0.366,0.366,0,0.3536,0.3547,0.355,0.3558,0.3561,0.3568,0.3576,0.3575,0.36,0.3601,0.3605,0.3608,0.3616,0.362,0.3628,0.3636,0.3652,0.3654,0.3652,0.3647,0.3642,0.3646,0.3699,0.3655,0.3656,0.3656,0.3656,0.3656,0.3495,0.3492,0.3507,0.3511,0.352,0.3528,0.3527,0.3541,0.3544,0.3553,0.3566,0.3568,0.3581,0.3594,0.3601,0.3603,0.3612,0.3608,0.3608,0.3607,0.3605,0.3642,0.3605,0.3605,0.3605,0.3605,0.3605,0,0.3445,0.3457,0.3461,0.3473,0.3477,0.3494,0.3505,0.3507,0.3509,0.352,0.3525,0.3531,0.3536,0.3553,0.356,0.3559,0.3567,0.3561,0.3561,0.3563,0.3595,0.3597,0.3554,0.3554,0.3554,0.3555,0.3555,0.3555,0.342,0.3416,0.3429,0.3431,0.3442,0.3446,0.3451,0.3459,0.3469,0.3474,0.348,0.3491,0.3505,0.3515,0.3521,0.3526,0.3528,0.3519,0.3526,0.3556,0.3561,0.3565,0.3567,0.3519,0.3519,0.3495,0.3495,0.3494]}]]